N4TRF-13 Weather Reports


Display with metric or nautical units.
time (UTC)temp
F
wind
direction
speed
MPH
gust
MPH
rain 1hr
in
rain 24hr
in
rain mn
in
humidity
%
barometer
mb
20260504180708 82 10 3.0 8.0 0.00 0.00 0.00 50 1014.0
20260504180206 82 187 2.0 5.0 0.00 0.00 0.00 53 1014.0
20260504175706 81 171 4.0 8.0 0.00 0.00 0.00 52 1014.0
20260504175206 81 290 3.0 9.0 0.00 0.00 0.00 55 1014.0
20260504174706 80 248 4.0 12.0 0.00 0.00 0.00 53 1014.0
20260504174206 81 217 3.0 7.0 0.00 0.00 0.00 52 1014.0
20260504173707 81 183 3.0 9.0 0.00 0.00 0.00 53 1014.0
20260504173206 81 272 3.0 8.0 0.00 0.00 0.00 52 1014.0
20260504172707 82 229 3.0 10.0 0.00 0.00 0.00 50 1014.0
20260504172206 82 101 3.0 7.0 0.00 0.00 0.00 52 1014.0
20260504171708 81 142 3.0 7.0 0.00 0.00 0.00 53 1014.0
20260504171206 81 126 2.0 8.0 0.00 0.00 0.00 57 1014.0
20260504170706 80 262 3.0 9.0 0.00 0.00 0.00 55 1014.0
20260504170207 79 190 4.0 10.0 0.00 0.00 0.00 55 1015.0
20260504160207 77 96 1.0 5.0 0.00 0.00 0.00 58 1016.0
20260504150707 73 181 1.0 5.0 0.00 0.00 0.00 64 1016.0
20260504150206 73 212 1.0 4.0 0.00 0.00 0.00 67 1016.0
20260504141209 68 127 2.0 6.0 0.00 0.00 0.00 71 1016.0
20260504140710 68 301 1.0 6.0 0.00 0.00 0.00 71 1016.0
20260504140206 67 110 1.0 3.0 0.00 0.00 0.00 73 1016.0
20260504130710 62 117 1.0 5.0 0.00 0.00 0.00 79 1016.0
20260504130207 62 104 1.0 6.0 0.00 0.00 0.00 78 1016.0
20260504120206 53 47 0.0 1.0 0.00 0.00 0.00 91 1016.0
20260504110706 50 125 0.0 0.0 0.00 0.00 0.00 92 1015.0
20260504110206 51 110 0.0 0.0 0.00 0.00 0.00 92 1015.0
20260504100206 51 157 0.0 0.0 0.00 0.00 0.00 89 1015.0
20260504081706 51 148 0.0 2.0 0.00 0.00 0.00 88 1016.0
20260504081207 51 137 0.0 0.0 0.00 0.00 0.00 88 1016.0
20260504080707 51 176 0.0 0.0 0.00 0.00 0.00 88 1016.0
20260504080206 51 137 0.0 0.0 0.00 0.00 0.00 88 1016.0
20260504070206 49 156 0.0 0.0 0.00 0.00 0.00 91 1016.0
20260504060206 51 143 0.0 0.0 0.00 0.00 0.00 84 1017.0
20260504050706 54 185 0.0 0.0 0.00 0.00 0.00 76 1017.0
20260504050206 55 31 0.0 0.0 0.00 0.00 0.88 75 1017.0
20260504045705 55 188 0.0 0.0 0.00 0.00 0.88 75 1017.0
20260504045206 55 140 0.0 0.0 0.00 0.00 0.88 74 1017.0
20260504044706 56 170 0.0 2.0 0.00 0.00 0.88 74 1017.0
20260504044206 56 146 0.0 0.0 0.00 0.00 0.88 74 1017.0
20260504043707 56 131 0.0 2.0 0.00 0.00 0.88 73 1017.0
20260504043207 56 132 0.0 0.0 0.00 0.00 0.88 73 1017.0
20260504042706 56 120 0.0 2.0 0.00 0.00 0.88 74 1017.0
20260504042206 56 134 0.0 2.0 0.00 0.00 0.88 73 1017.0
20260504041706 56 234 0.0 2.0 0.00 0.00 0.88 73 1017.0
20260504041207 56 142 0.0 0.0 0.00 0.00 0.88 74 1017.0
20260504040707 56 141 0.0 0.0 0.00 0.00 0.88 74 1017.0
20260504040206 56 146 0.0 0.0 0.00 0.00 0.88 74 1017.0
20260504035709 56 143 0.0 0.0 0.00 0.00 0.88 74 1017.0
20260504035206 56 128 0.0 0.0 0.00 0.00 0.88 74 1017.0
20260504034707 56 127 0.0 0.0 0.00 0.00 0.88 75 1017.0
20260504034206 56 143 0.0 0.0 0.00 0.00 0.88 75 1017.0
20260504033706 55 176 0.0 0.0 0.00 0.00 0.88 76 1017.0
20260504033206 55 172 0.0 0.0 0.00 0.00 0.88 76 1017.0
20260504032706 55 125 0.0 0.0 0.00 0.00 0.88 78 1017.0
20260504032206 55 134 0.0 0.0 0.00 0.00 0.88 78 1017.0
20260504031706 55 156 0.0 0.0 0.00 0.00 0.88 79 1017.0
20260504031206 55 147 0.0 0.0 0.00 0.00 0.88 79 1017.0
20260504030707 54 127 0.0 0.0 0.00 0.00 0.88 79 1017.0
20260504030207 54 167 0.0 0.0 0.00 0.00 0.88 80 1017.0
20260504025706 54 171 0.0 0.0 0.00 0.00 0.88 80 1017.0
20260504025207 54 142 0.0 0.0 0.00 0.00 0.88 81 1017.0
20260504024707 54 160 0.0 0.0 0.00 0.00 0.88 80 1017.0
20260504024206 54 186 0.0 0.0 0.00 0.00 0.88 81 1017.0
20260504023706 54 174 0.0 0.0 0.00 0.00 0.88 81 1017.0
20260504023206 55 155 0.0 0.0 0.00 0.00 0.88 81 1017.0
20260504022706 55 151 0.0 0.0 0.00 0.00 0.88 81 1017.0
20260504022206 55 184 0.0 0.0 0.00 0.00 0.88 80 1017.0
20260504021706 55 172 0.0 0.0 0.00 0.00 0.88 79 1017.0
20260504021207 55 165 0.0 0.0 0.00 0.00 0.88 78 1017.0
20260504020706 56 161 0.0 0.0 0.00 0.00 0.88 79 1017.0
20260504020207 56 134 0.0 0.0 0.00 0.00 0.88 78 1017.0
20260504015706 56 149 0.0 0.0 0.00 0.00 0.88 77 1017.0
20260504015208 57 155 0.0 0.0 0.00 0.00 0.88 76 1017.0
20260504014706 57 164 0.0 0.0 0.00 0.00 0.88 75 1017.0
20260504014206 57 150 0.0 0.0 0.00 0.00 0.88 74 1017.0
20260504013706 58 160 0.0 0.0 0.00 0.00 0.88 73 1017.0
20260504013206 58 168 0.0 0.0 0.00 0.00 0.88 72 1017.0
20260504012706 59 174 0.0 0.0 0.00 0.00 0.88 70 1017.0
20260504012206 59 180 0.0 0.0 0.00 0.00 0.88 69 1017.0
20260504011706 60 150 0.0 0.0 0.00 0.00 0.88 67 1017.0
20260504011206 61 150 0.0 0.0 0.00 0.00 0.88 67 1017.0
20260504010708 61 137 0.0 0.0 0.00 0.00 0.88 66 1017.0
20260504010207 62 139 0.0 0.0 0.00 0.00 0.88 62 1017.0
20260504005706 62 161 0.0 0.0 0.00 0.00 0.88 58 1017.0
20260504005206 63 176 0.0 0.0 0.00 0.00 0.88 58 1017.0
20260504004706 64 166 0.0 0.0 0.00 0.00 0.88 58 1017.0
20260504004206 64 144 0.0 0.0 0.00 0.00 0.88 58 1017.0
20260504003706 65 123 0.0 0.0 0.00 0.00 0.88 56 1017.0
20260504003206 66 137 0.0 0.0 0.00 0.00 0.88 53 1017.0
20260504002706 66 151 0.0 0.0 0.00 0.00 0.88 52 1017.0
20260504002206 67 172 0.0 0.0 0.00 0.00 0.88 51 1017.0
20260504001706 67 177 0.0 0.0 0.00 0.00 0.88 51 1017.0
20260504001206 68 148 0.0 0.0 0.00 0.00 0.88 51 1017.0
20260504000707 68 159 0.0 1.0 0.00 0.00 0.88 49 1017.0
20260504000206 69 188 0.0 3.0 0.00 0.00 0.88 49 1017.0
20260503235706 69 171 0.0 0.0 0.00 0.00 0.88 48 1017.0
20260503235206 70 196 0.0 3.0 0.00 0.00 0.88 46 1017.0
20260503234706 70 113 0.0 1.0 0.00 0.00 0.88 48 1017.0
20260503234206 71 156 0.0 6.0 0.00 0.00 0.88 46 1017.0
20260503233709 72 169 0.0 3.0 0.00 0.00 0.88 45 1017.0
20260503233206 72 263 0.0 3.0 0.00 0.00 0.88 45 1017.0
20260503232706 72 173 1.0 7.0 0.00 0.00 0.88 42 1017.0
20260503232207 73 88 1.0 3.0 0.00 0.00 0.88 42 1017.0
20260503231706 73 111 3.0 8.0 0.00 0.00 0.88 41 1017.0
20260503231207 74 172 2.0 6.0 0.00 0.00 0.88 39 1017.0
20260503230706 75 27 1.0 6.0 0.00 0.00 0.88 40 1017.0
20260503230206 76 106 1.0 6.0 0.00 0.00 0.88 40 1017.0
20260503225706 76 157 2.0 6.0 0.00 0.00 0.88 39 1018.0
20260503225206 76 92 1.0 5.0 0.00 0.00 0.88 40 1018.0
20260503224706 77 56 2.0 6.0 0.00 0.00 0.88 40 1018.0
20260503224206 78 155 0.0 4.0 0.00 0.00 0.88 38 1018.0
20260503223707 77 143 1.0 7.0 0.00 0.00 0.88 40 1018.0
20260503223206 76 165 1.0 4.0 0.00 0.00 0.88 42 1018.0
20260503222707 76 99 2.0 6.0 0.00 0.00 0.88 41 1018.0
20260503222206 78 247 1.0 4.0 0.00 0.00 0.88 40 1018.0
20260503221706 76 175 2.0 6.0 0.00 0.00 0.88 42 1018.0
20260503221206 77 195 3.0 7.0 0.00 0.00 0.88 40 1018.0
20260503220706 77 129 2.0 4.0 0.00 0.00 0.88 42 1018.0
20260503220206 76 7 1.0 5.0 0.00 0.00 0.88 39 1018.0
20260503215711 75 225 3.0 8.0 0.00 0.00 0.88 40 1018.0
20260503215206 75 178 3.0 7.0 0.00 0.00 0.88 43 1018.0
20260503214706 75 282 3.0 9.0 0.00 0.00 0.88 39 1018.0
20260503214207 77 328 2.0 8.0 0.00 0.00 0.88 39 1018.0
20260503213706 77 146 1.0 6.0 0.00 0.00 0.88 40 1019.0
20260503213208 75 138 3.0 8.0 0.00 0.00 0.88 39 1019.0
20260503212706 77 102 1.0 4.0 0.00 0.00 0.88 40 1019.0
20260503212207 76 185 1.0 7.0 0.00 0.00 0.88 39 1019.0
20260503211706 74 244 3.0 8.0 0.00 0.00 0.88 40 1019.0
20260503211206 76 333 2.0 6.0 0.00 0.00 0.88 42 1019.0
20260503210707 76 251 2.0 4.0 0.00 0.00 0.88 38 1019.0
20260503210208 75 157 1.0 5.0 0.00 0.00 0.88 43 1019.0
20260503205706 74 257 3.0 6.0 0.00 0.00 0.88 41 1019.0
20260503205207 73 283 5.0 11.0 0.00 0.00 0.88 41 1019.0
20260503204706 73 145 4.0 9.0 0.00 0.00 0.88 40 1019.0
20260503204206 76 287 2.0 9.0 0.00 0.00 0.88 37 1019.0
20260503203706 75 169 2.0 6.0 0.00 0.00 0.88 40 1020.0
20260503203207 75 239 2.0 7.0 0.00 0.00 0.88 40 1020.0
20260503202706 75 283 2.0 7.0 0.00 0.00 0.88 43 1020.0
20260503202206 77 287 2.0 5.0 0.00 0.00 0.88 39 1020.0
20260503201706 76 190 0.0 3.0 0.00 0.00 0.88 42 1020.0
20260503201206 73 152 2.0 7.0 0.00 0.00 0.88 44 1020.0
20260503200706 74 337 3.0 8.0 0.00 0.00 0.88 41 1020.0
20260503200206 74 327 2.0 4.0 0.00 0.00 0.88 40 1020.0
20260503195706 72 185 3.0 8.0 0.00 0.00 0.88 44 1020.0
20260503195206 71 195 4.0 10.0 0.00 0.00 0.88 43 1020.0
20260503194706 73 289 4.0 10.0 0.00 0.00 0.88 41 1020.0
20260503194206 74 158 3.0 6.0 0.00 0.00 0.88 40 1021.0
20260503193706 72 142 3.0 7.0 0.00 0.00 0.88 46 1021.0
20260503193206 72 267 3.0 8.0 0.00 0.00 0.88 44 1021.0
20260503192706 72 17 3.0 10.0 0.00 0.00 0.88 44 1021.0
20260503192206 71 239 3.0 7.0 0.00 0.00 0.88 42 1021.0
20260503191706 71 285 5.0 8.0 0.00 0.00 0.88 43 1021.0
20260503191208 71 170 4.0 7.0 0.00 0.00 0.88 42 1021.0
20260503190706 73 185 3.0 7.0 0.00 0.00 0.88 43 1021.0
20260503190206 72 292 2.0 7.0 0.00 0.00 0.88 45 1021.0
20260503185706 73 270 2.0 3.0 0.00 0.00 0.88 41 1021.0
20260503185206 72 95 2.0 4.0 0.00 0.00 0.88 40 1021.0
20260503184706 71 128 2.0 6.0 0.00 0.00 0.88 44 1021.0
20260503184207 71 273 3.0 6.0 0.00 0.00 0.88 40 1022.0
20260503183707 72 288 2.0 7.0 0.00 0.00 0.88 43 1022.0
20260503183206 71 109 3.0 7.0 0.00 0.00 0.88 46 1021.0
20260503182706 71 131 2.0 5.0 0.00 0.00 0.88 43 1022.0
20260503182206 70 268 3.0 7.0 0.00 0.00 0.88 42 1022.0
20260503181706 71 111 2.0 4.0 0.00 0.00 0.88 46 1022.0
20260503181206 71 228 3.0 7.0 0.00 0.00 0.88 48 1022.0